Gadsden, AL

9:57 PM CDT on August 22, 2017 (GMT -0500)
Gadsden Municipal

Weather History for KGAD - June, 2013

Change the Weather History Date:

Sunday, June 2, 2013

  Actual Average Record
Temperature  
Mean Temperature 76 °F -  
Max Temperature 84 °F 79 °F 99 °F (1951)
Min Temperature 68 °F 59 °F 46 °F (1931)
Cooling Degree Days 11    
Growing Degree Days 26 (Base 50)    
Moisture  
Dew Point 66 °F    
Average Humidity 73    
Maximum Humidity 94    
Minimum Humidity 51    
Precipitation  
Precipitation 0.01 in - - ()
Sea Level Pressure  
Sea Level Pressure 29.94 in    
Wind  
Wind Speed 2 mph (WNW)    
Max Wind Speed 12 mph    
Max Gust Speed -    
Visibility 10 miles    
Events      
Averages and records for this station are not official NWS values.
T = Trace of Precipitation, MM = Missing Value Source: NWS Daily Summary

Daily Weather History Graph

Daily Weather History Graph

Search for Another Location

Airport or City:

Trip Planner

Search our weather history database for the weather conditions in past years. The results will help you decide how hot, cold, wet, or windy it might be!

Date:

Astronomy

Jun. 02, 2013 Rise Set
Actual Time 5:33 AM CDT 7:51 PM CDT
Civil Twilight 5:05 AM CDT 8:19 PM CDT
Nautical Twilight 4:29 AM CDT 8:55 PM CDT
Astronomical Twilight 3:51 AM CDT 9:33 PM CDT
Moon 1:45 AM CDT (6/2) 2:34 PM CDT (6/2)
Length of Visible Light 15h 14m
Length of Day
14h 17m
Waning Crescent, 30% of the Moon is Illuminated
Jun 2
Waning Crescent
Jun 8
New
Jun 16
First Quarter
Jun 23
Full
Jun 29
Last Quarter

Hourly Weather History & Observations

Time (CDT) Temp. Heat Index Dew Point Humidity Pressure Visibility Wind Dir Wind Speed Gust Speed Precip Events Conditions
12:15 AM 69.8 °F - 66.2 °F 88% 30.00 in 10.0 mi Calm Calm - N/A   Mostly Cloudy
12:35 AM 69.8 °F - 66.2 °F 88% 30.00 in 10.0 mi Calm Calm - N/A   Overcast
12:55 AM 69.8 °F - 66.2 °F 88% 30.00 in 10.0 mi Calm Calm - N/A   Overcast
1:15 AM 69.8 °F - 66.2 °F 88% 29.98 in 10.0 mi Calm Calm - N/A   Overcast
1:35 AM 69.8 °F - 66.2 °F 88% 29.98 in 10.0 mi Calm Calm - N/A   Mostly Cloudy
1:55 AM 69.8 °F - 66.2 °F 88% 29.97 in 10.0 mi Calm Calm - N/A   Partly Cloudy
2:15 AM 69.8 °F - 66.2 °F 88% 29.97 in 10.0 mi Calm Calm - N/A   Clear
2:35 AM 68.0 °F - 66.2 °F 94% 29.97 in 10.0 mi Calm Calm - N/A   Clear
2:55 AM 69.8 °F - 66.2 °F 88% 29.98 in 10.0 mi Calm Calm - N/A   Mostly Cloudy
3:15 AM 68.0 °F - 64.4 °F 88% 29.97 in 10.0 mi Calm Calm - N/A   Overcast
3:35 AM 68.0 °F - 64.4 °F 88% 29.97 in 10.0 mi Calm Calm - N/A   Mostly Cloudy
3:55 AM 68.0 °F - 66.2 °F 94% 29.96 in 10.0 mi Calm Calm - N/A   Mostly Cloudy
4:15 AM 69.8 °F - 66.2 °F 88% 29.95 in 10.0 mi South 3.5 mph - N/A   Scattered Clouds
4:35 AM 69.8 °F - 66.2 °F 88% 29.95 in 10.0 mi Calm Calm - N/A   Scattered Clouds
4:55 AM 69.8 °F - 66.2 °F 88% 29.95 in 10.0 mi Calm Calm - N/A   Overcast
5:15 AM 69.8 °F - 66.2 °F 88% 29.95 in 10.0 mi SSE 3.5 mph - N/A   Overcast
5:35 AM 69.8 °F - 66.2 °F 88% 29.96 in 10.0 mi Calm Calm - N/A   Overcast
5:55 AM 69.8 °F - 68.0 °F 94% 29.95 in 10.0 mi WSW 4.6 mph - N/A   Overcast
6:15 AM 69.8 °F - 66.2 °F 88% 29.95 in 9.0 mi Calm Calm - N/A   Mostly Cloudy
6:35 AM 69.8 °F - 66.2 °F 88% 29.94 in 8.0 mi Calm Calm - N/A   Mostly Cloudy
6:55 AM 71.6 °F - 68.0 °F 88% 29.94 in 8.0 mi Calm Calm - N/A   Overcast
7:15 AM 71.6 °F - 68.0 °F 88% 29.94 in 8.0 mi Calm Calm - N/A   Overcast
7:35 AM 71.6 °F - 69.8 °F 94% 29.93 in 10.0 mi Calm Calm - N/A   Overcast
7:55 AM 73.4 °F - 69.8 °F 88% 29.94 in 10.0 mi Calm Calm - N/A   Overcast
8:15 AM 73.4 °F - 69.8 °F 88% 29.95 in 10.0 mi Calm Calm - N/A   Scattered Clouds
8:35 AM 75.2 °F - 69.8 °F 83% 29.95 in 10.0 mi Calm Calm - N/A   Clear
8:55 AM 75.2 °F - 69.8 °F 83% 29.96 in 10.0 mi West 4.6 mph - N/A   Mostly Cloudy
9:15 AM 75.2 °F - 69.8 °F 83% 29.96 in 10.0 mi WNW 3.5 mph - N/A   Mostly Cloudy
9:35 AM 77.0 °F - 68.0 °F 74% 29.95 in 10.0 mi WNW 5.8 mph - N/A   Scattered Clouds
9:55 AM 78.8 °F - 66.2 °F 65% 29.95 in 5.0 mi Calm Calm - N/A   Partly Cloudy
10:15 AM 80.6 °F 82.3 °F 64.4 °F 58% 29.95 in 10.0 mi NW 4.6 mph - N/A   Clear
10:35 AM 80.6 °F 82.7 °F 66.2 °F 61% 29.95 in 10.0 mi WNW 5.8 mph - N/A   Clear
10:55 AM 80.6 °F 82.7 °F 66.2 °F 61% 29.95 in 10.0 mi WNW 4.6 mph - N/A   Clear
11:15 AM 80.6 °F 82.7 °F 66.2 °F 61% 29.95 in 10.0 mi Calm Calm - N/A   Clear
11:35 AM 80.6 °F 82.3 °F 64.4 °F 58% 29.94 in 10.0 mi Calm Calm - N/A   Clear
11:55 AM 82.4 °F 84.6 °F 66.2 °F 58% 29.94 in 10.0 mi WNW 3.5 mph - N/A   Clear
12:15 PM 82.4 °F 84.6 °F 66.2 °F 58% 29.94 in 10.0 mi NW 3.5 mph - N/A   Scattered Clouds
12:35 PM 82.4 °F 84.6 °F 66.2 °F 58% 29.93 in 9.0 mi SSW 5.8 mph - N/A   Mostly Cloudy
12:55 PM 82.4 °F 84.6 °F 66.2 °F 58% 29.93 in 10.0 mi WSW 8.1 mph - N/A   Scattered Clouds
1:15 PM 82.4 °F 83.9 °F 64.4 °F 54% 29.92 in 10.0 mi West 10.4 mph - N/A   Partly Cloudy
1:35 PM 84.2 °F 85.6 °F 64.4 °F 51% 29.92 in 10.0 mi West 11.5 mph - N/A   Partly Cloudy
1:55 PM 84.2 °F 86.6 °F 66.2 °F 55% 29.92 in 10.0 mi WNW 9.2 mph - N/A   Scattered Clouds
2:15 PM 84.2 °F 86.6 °F 66.2 °F 55% 29.92 in 10.0 mi NW 9.2 mph - N/A   Partly Cloudy
2:35 PM 84.2 °F 85.6 °F 64.4 °F 51% 29.92 in 10.0 mi NW 6.9 mph - N/A   Scattered Clouds
2:55 PM 84.2 °F 85.6 °F 64.4 °F 51% 29.91 in 10.0 mi WNW 9.2 mph - N/A   Partly Cloudy
3:15 PM 84.2 °F 85.6 °F 64.4 °F 51% 29.91 in 10.0 mi WNW 10.4 mph - N/A   Partly Cloudy
3:35 PM 84.2 °F 85.6 °F 64.4 °F 51% 29.91 in 10.0 mi West 10.4 mph - N/A   Clear
3:55 PM 84.2 °F 85.6 °F 64.4 °F 51% 29.90 in 10.0 mi WNW 9.2 mph - N/A   Partly Cloudy
4:15 PM 82.4 °F 83.4 °F 62.6 °F 51% 29.90 in 10.0 mi West 8.1 mph - N/A   Scattered Clouds
4:35 PM 80.6 °F 82.3 °F 64.4 °F 58% 29.90 in 10.0 mi NW 6.9 mph - N/A   Overcast
4:55 PM 80.6 °F 82.3 °F 64.4 °F 58% 29.90 in 10.0 mi WNW 5.8 mph - N/A   Overcast
5:15 PM 80.6 °F 82.3 °F 64.4 °F 58% 29.90 in 10.0 mi WNW 5.8 mph - N/A   Mostly Cloudy
5:35 PM 80.6 °F 82.3 °F 64.4 °F 58% 29.90 in 10.0 mi West 5.8 mph - N/A   Mostly Cloudy
5:55 PM 80.6 °F 82.3 °F 64.4 °F 58% 29.89 in 10.0 mi West 6.9 mph - N/A   Partly Cloudy
6:15 PM 80.6 °F 82.3 °F 64.4 °F 58% 29.89 in 10.0 mi WNW 4.6 mph - N/A   Clear
6:35 PM 80.6 °F 82.3 °F 64.4 °F 58% 29.89 in 10.0 mi NW 5.8 mph - N/A   Clear
6:55 PM 78.8 °F - 64.4 °F 61% 29.89 in 10.0 mi NW 4.6 mph - N/A   Clear
7:15 PM 77.0 °F - 64.4 °F 65% 29.90 in 10.0 mi NW 4.6 mph - N/A   Mostly Cloudy
7:35 PM 77.0 °F - 64.4 °F 65% 29.92 in 10.0 mi WNW 4.6 mph - N/A   Overcast
7:55 PM 75.2 °F - 66.2 °F 73% 29.91 in 10.0 mi Calm Calm - N/A   Overcast
8:15 PM 73.4 °F - 64.4 °F 73% 29.92 in 10.0 mi Calm Calm - N/A   Scattered Clouds
8:35 PM 73.4 °F - 64.4 °F 73% 29.92 in 10.0 mi Calm Calm - N/A   Clear
8:55 PM 71.6 °F - 64.4 °F 78% 29.92 in 10.0 mi Calm Calm - N/A   Clear
9:15 PM 71.6 °F - 64.4 °F 78% 29.92 in 10.0 mi Calm Calm - N/A   Clear
9:35 PM 71.6 °F - 64.4 °F 78% 29.92 in 10.0 mi Calm Calm - N/A   Clear
9:55 PM 71.6 °F - 64.4 °F 78% 29.93 in 10.0 mi NW 5.8 mph - N/A   Clear
10:15 PM 71.6 °F - 64.4 °F 78% 29.93 in 10.0 mi NW 4.6 mph - N/A   Clear
10:35 PM 69.8 °F - 64.4 °F 83% 29.93 in 10.0 mi Calm Calm - N/A   Clear
10:55 PM 69.8 °F - 66.2 °F 88% 29.93 in 10.0 mi Calm Calm - N/A   Clear
11:15 PM 69.8 °F - 64.4 °F 83% 29.93 in 10.0 mi Calm Calm - N/A   Clear
11:35 PM 69.8 °F - 64.4 °F 83% 29.92 in 10.0 mi Calm Calm - N/A   Clear
11:55 PM 69.8 °F - 64.4 °F 83% 29.92 in 10.0 mi Calm Calm - N/A   Clear